Time,TemperatureF,DewpointF,PressureIn,WindDirection,WindDirectionDegrees,WindSpeedMPH,WindSpeedGustMPH,Humidity,HourlyPrecipIn,Conditions,Clouds,dailyrainin,SolarRadiationWatts/m^2,SoftwareType,DateUTC
2013-04-23 00:02:00,26.0,15.0,-100.00,West,263,2.0,6.0,63,0.00,,,0.00,0.000000,,2013-04-23 06:02:00,
2013-04-23 00:12:00,26.0,15.0,-100.00,West,263,2.0,6.0,63,0.00,,,0.00,0.000000,,2013-04-23 06:12:00,
2013-04-23 00:21:00,26.0,15.0,-100.00,West,263,2.0,6.0,63,0.00,,,0.00,0.000000,,2013-04-23 06:21:00,
2013-04-23 00:42:00,25.0,15.0,-100.00,WSW,257,3.0,5.0,65,0.00,,,0.00,0.000000,,2013-04-23 06:42:00,
2013-04-23 00:52:00,25.0,15.0,-100.00,WSW,257,3.0,5.0,65,0.00,,,0.00,0.000000,,2013-04-23 06:52:00,
2013-04-23 01:02:00,25.0,15.0,-100.00,WSW,257,3.0,5.0,65,0.00,,,0.00,0.000000,,2013-04-23 07:02:00,
2013-04-23 01:11:00,25.0,15.0,-100.00,WSW,257,3.0,5.0,65,0.00,,,0.00,0.000000,,2013-04-23 07:11:00,
2013-04-23 01:21:00,25.0,15.0,-100.00,WSW,257,3.0,5.0,65,0.00,,,0.00,0.000000,,2013-04-23 07:21:00,
2013-04-23 01:52:00,25.0,15.0,-100.00,WSW,254,3.0,6.0,65,0.00,,,0.00,0.000000,,2013-04-23 07:52:00,
2013-04-23 02:02:00,25.0,15.0,-100.00,WSW,254,3.0,6.0,65,0.00,,,0.00,0.000000,,2013-04-23 08:02:00,
2013-04-23 02:11:00,25.0,15.0,-100.00,WSW,254,3.0,6.0,65,0.00,,,0.00,0.000000,,2013-04-23 08:11:00,
2013-04-23 02:21:00,25.0,15.0,-100.00,WSW,254,3.0,6.0,65,0.00,,,0.00,0.000000,,2013-04-23 08:21:00,
2013-04-23 02:52:00,23.0,15.0,-100.00,West,261,2.0,6.0,71,0.00,,,0.00,0.000000,,2013-04-23 08:52:00,
2013-04-23 03:01:00,23.0,15.0,-100.00,West,261,2.0,6.0,71,0.00,,,0.00,0.000000,,2013-04-23 09:01:00,
2013-04-23 03:11:00,23.0,15.0,-100.00,West,261,2.0,6.0,71,0.00,,,0.00,0.000000,,2013-04-23 09:11:00,
2013-04-23 03:21:00,23.0,15.0,-100.00,West,261,2.0,6.0,71,0.00,,,0.00,0.000000,,2013-04-23 09:21:00,
2013-04-23 03:53:00,23.0,15.0,-100.00,West,262,3.0,6.0,70,0.00,,,0.00,0.000000,,2013-04-23 09:53:00,
2013-04-23 04:02:00,23.0,15.0,-100.00,West,262,3.0,6.0,70,0.00,,,0.00,0.000000,,2013-04-23 10:02:00,
2013-04-23 04:13:00,23.0,15.0,-100.00,West,262,3.0,6.0,70,0.00,,,0.00,0.000000,,2013-04-23 10:13:00,
2013-04-23 04:22:00,23.0,15.0,-100.00,West,262,3.0,6.0,70,0.00,,,0.00,0.000000,,2013-04-23 10:22:00,
2013-04-23 04:52:00,24.0,15.0,-100.00,WSW,251,3.0,8.0,69,0.00,,,0.00,0.000000,,2013-04-23 10:52:00,
2013-04-23 05:03:00,24.0,15.0,-100.00,WSW,251,3.0,8.0,69,0.00,,,0.00,0.000000,,2013-04-23 11:03:00,
2013-04-23 05:12:00,24.0,15.0,-100.00,WSW,251,3.0,8.0,69,0.00,,,0.00,0.000000,,2013-04-23 11:12:00,
2013-04-23 05:21:00,24.0,15.0,-100.00,WSW,251,3.0,8.0,69,0.00,,,0.00,0.000000,,2013-04-23 11:21:00,
2013-04-23 05:43:00,22.0,15.0,-100.00,WSW,238,2.0,6.0,73,0.00,,,0.00,0.000000,,2013-04-23 11:43:00,
2013-04-23 05:53:00,22.0,15.0,-100.00,WSW,238,2.0,6.0,73,0.00,,,0.00,0.000000,,2013-04-23 11:53:00,
2013-04-23 06:02:00,22.0,15.0,-100.00,WSW,238,2.0,6.0,73,0.00,,,0.00,0.000000,,2013-04-23 12:02:00,
2013-04-23 06:12:00,22.0,15.0,-100.00,WSW,238,2.0,6.0,73,0.00,,,0.00,0.000000,,2013-04-23 12:12:00,
2013-04-23 06:22:00,22.0,15.0,-100.00,WSW,238,2.0,6.0,73,0.00,,,0.00,0.000000,,2013-04-23 12:22:00,
2013-04-23 06:52:00,24.0,17.0,-100.00,WSW,240,3.0,7.0,74,0.00,,,0.00,8.000000,,2013-04-23 12:52:00,
2013-04-23 07:01:00,24.0,17.0,-100.00,WSW,240,3.0,7.0,74,0.00,,,0.00,8.000000,,2013-04-23 13:01:00,
2013-04-23 07:11:00,24.0,17.0,-100.00,WSW,240,3.0,7.0,74,0.00,,,0.00,8.000000,,2013-04-23 13:11:00,
2013-04-23 07:21:00,24.0,17.0,-100.00,WSW,240,3.0,7.0,74,0.00,,,0.00,8.000000,,2013-04-23 13:21:00,
2013-04-23 07:42:00,30.0,20.0,-100.00,WSW,251,6.0,11.0,66,0.00,,,0.00,134.000000,,2013-04-23 13:42:00,
2013-04-23 07:52:00,30.0,20.0,-100.00,WSW,251,6.0,11.0,66,0.00,,,0.00,134.000000,,2013-04-23 13:52:00,
2013-04-23 08:02:00,30.0,20.0,-100.00,WSW,251,6.0,11.0,66,0.00,,,0.00,134.000000,,2013-04-23 14:02:00,
2013-04-23 08:11:00,30.0,20.0,-100.00,WSW,251,6.0,11.0,66,0.00,,,0.00,134.000000,,2013-04-23 14:11:00,
2013-04-23 08:22:00,30.0,20.0,-100.00,WSW,251,6.0,11.0,66,0.00,,,0.00,134.000000,,2013-04-23 14:22:00,
2013-04-23 08:52:00,36.0,25.0,-100.00,WSW,247,6.0,12.0,64,0.00,,,0.00,347.000000,,2013-04-23 14:52:00,
2013-04-23 09:01:00,36.0,25.0,-100.00,WSW,247,6.0,12.0,64,0.00,,,0.00,347.000000,,2013-04-23 15:01:00,
2013-04-23 09:12:00,36.0,25.0,-100.00,WSW,247,6.0,12.0,64,0.00,,,0.00,347.000000,,2013-04-23 15:12:00,
2013-04-23 09:21:00,36.0,25.0,-100.00,WSW,247,6.0,12.0,64,0.00,,,0.00,347.000000,,2013-04-23 15:21:00,
2013-04-23 09:53:00,42.0,25.0,-100.00,West,259,7.0,16.0,51,0.00,,,0.00,565.000000,,2013-04-23 15:53:00,
2013-04-23 10:03:00,42.0,25.0,-100.00,West,259,7.0,16.0,51,0.00,,,0.00,565.000000,,2013-04-23 16:03:00,
2013-04-23 10:12:00,42.0,25.0,-100.00,West,259,7.0,16.0,51,0.00,,,0.00,565.000000,,2013-04-23 16:12:00,
2013-04-23 10:23:00,42.0,25.0,-100.00,West,259,7.0,16.0,51,0.00,,,0.00,565.000000,,2013-04-23 16:23:00,
2013-04-23 10:43:00,44.0,19.0,-100.00,West,281,7.0,17.0,37,0.00,,,0.00,734.000000,,2013-04-23 16:43:00,
2013-04-23 10:53:00,44.0,19.0,-100.00,West,281,7.0,17.0,37,0.00,,,0.00,734.000000,,2013-04-23 16:53:00,
2013-04-23 11:02:00,44.0,19.0,-100.00,West,281,7.0,17.0,37,0.00,,,0.00,734.000000,,2013-04-23 17:02:00,
2013-04-23 11:11:00,44.0,19.0,-100.00,West,281,7.0,17.0,37,0.00,,,0.00,734.000000,,2013-04-23 17:11:00,
2013-04-23 11:22:00,44.0,19.0,-100.00,West,281,7.0,17.0,37,0.00,,,0.00,734.000000,,2013-04-23 17:22:00,
2013-04-23 11:43:00,45.0,18.0,-100.00,West,264,8.0,16.0,33,0.00,,,0.00,846.000000,,2013-04-23 17:43:00,
2013-04-23 11:53:00,45.0,18.0,-100.00,West,264,8.0,16.0,33,0.00,,,0.00,846.000000,,2013-04-23 17:53:00,
2013-04-23 12:02:00,45.0,18.0,-100.00,West,264,8.0,16.0,33,0.00,,,0.00,846.000000,,2013-04-23 18:02:00,
2013-04-23 12:12:00,45.0,18.0,-100.00,West,264,8.0,16.0,33,0.00,,,0.00,846.000000,,2013-04-23 18:12:00,
2013-04-23 12:22:00,45.0,18.0,-100.00,West,264,8.0,16.0,33,0.00,,,0.00,846.000000,,2013-04-23 18:22:00,
2013-04-23 12:52:00,48.0,18.0,-100.00,NNE,13,6.0,16.0,30,0.00,,,0.00,1009.000000,,2013-04-23 18:52:00,
2013-04-23 13:02:00,48.0,18.0,-100.00,NNE,13,6.0,16.0,30,0.00,,,0.00,1009.000000,,2013-04-23 19:02:00,
2013-04-23 13:11:00,48.0,18.0,-100.00,NNE,13,6.0,16.0,30,0.00,,,0.00,1009.000000,,2013-04-23 19:11:00,
2013-04-23 13:22:00,48.0,18.0,-100.00,NNE,13,6.0,16.0,30,0.00,,,0.00,1009.000000,,2013-04-23 19:22:00,
2013-04-23 13:52:00,50.0,21.0,-100.00,WNW,286,6.0,18.0,31,0.00,,,0.00,1043.000000,,2013-04-23 19:52:00,
2013-04-23 14:02:00,50.0,21.0,-100.00,WNW,286,6.0,18.0,31,0.00,,,0.00,1043.000000,,2013-04-23 20:02:00,
2013-04-23 14:11:00,50.0,21.0,-100.00,WNW,286,6.0,18.0,31,0.00,,,0.00,1043.000000,,2013-04-23 20:11:00,
2013-04-23 14:22:00,50.0,21.0,-100.00,WNW,286,6.0,18.0,31,0.00,,,0.00,1043.000000,,2013-04-23 20:22:00,
2013-04-23 14:52:00,52.0,17.0,-100.00,West,272,6.0,16.0,25,0.00,,,0.00,1026.000000,,2013-04-23 20:52:00,
2013-04-23 15:02:00,52.0,17.0,-100.00,West,272,6.0,16.0,25,0.00,,,0.00,1026.000000,,2013-04-23 21:02:00,
2013-04-23 15:12:00,52.0,17.0,-100.00,West,272,6.0,16.0,25,0.00,,,0.00,1026.000000,,2013-04-23 21:12:00,
2013-04-23 15:21:00,52.0,17.0,-100.00,West,272,6.0,16.0,25,0.00,,,0.00,1026.000000,,2013-04-23 21:21:00,
2013-04-23 15:43:00,51.0,16.0,-100.00,WSW,250,7.0,18.0,25,0.00,,,0.00,939.000000,,2013-04-23 21:43:00,
2013-04-23 15:52:00,51.0,16.0,-100.00,WSW,250,7.0,18.0,25,0.00,,,0.00,939.000000,,2013-04-23 21:52:00,
2013-04-23 16:03:00,51.0,16.0,-100.00,WSW,250,7.0,18.0,25,0.00,,,0.00,939.000000,,2013-04-23 22:03:00,
2013-04-23 16:12:00,51.0,16.0,-100.00,WSW,250,7.0,18.0,25,0.00,,,0.00,939.000000,,2013-04-23 22:12:00,
2013-04-23 16:22:00,51.0,16.0,-100.00,WSW,250,7.0,18.0,25,0.00,,,0.00,939.000000,,2013-04-23 22:22:00,
2013-04-23 16:52:00,54.0,16.0,-100.00,West,263,7.0,19.0,22,0.00,,,0.00,796.000000,,2013-04-23 22:52:00,
2013-04-23 17:03:00,54.0,16.0,-100.00,West,263,7.0,19.0,22,0.00,,,0.00,796.000000,,2013-04-23 23:03:00,
2013-04-23 17:12:00,54.0,16.0,-100.00,West,263,7.0,19.0,22,0.00,,,0.00,796.000000,,2013-04-23 23:12:00,
2013-04-23 17:22:00,54.0,16.0,-100.00,West,263,7.0,19.0,22,0.00,,,0.00,796.000000,,2013-04-23 23:22:00,
2013-04-23 17:52:00,52.0,16.0,-100.00,West,270,5.0,17.0,24,0.00,,,0.00,522.000000,,2013-04-23 23:52:00,
2013-04-23 18:01:00,52.0,16.0,-100.00,West,270,5.0,17.0,24,0.00,,,0.00,522.000000,,2013-04-24 00:01:00,
2013-04-23 18:11:00,52.0,16.0,-100.00,West,270,5.0,17.0,24,0.00,,,0.00,522.000000,,2013-04-24 00:11:00,
2013-04-23 18:22:00,52.0,16.0,-100.00,West,270,5.0,17.0,24,0.00,,,0.00,522.000000,,2013-04-24 00:22:00,
2013-04-23 18:52:00,52.0,14.0,-100.00,West,267,6.0,21.0,22,0.00,,,0.00,401.000000,,2013-04-24 00:52:00,
2013-04-23 19:02:00,52.0,14.0,-100.00,West,267,6.0,21.0,22,0.00,,,0.00,401.000000,,2013-04-24 01:02:00,
2013-04-23 19:11:00,52.0,14.0,-100.00,West,267,6.0,21.0,22,0.00,,,0.00,401.000000,,2013-04-24 01:11:00,
2013-04-23 19:21:00,52.0,14.0,-100.00,West,267,6.0,21.0,22,0.00,,,0.00,401.000000,,2013-04-24 01:21:00,
2013-04-23 19:24:00,44.0,15.0,-100.00,West,281,4.0,15.0,30,0.00,,,0.00,90.000000,,2013-04-24 01:24:00,
2013-04-23 19:52:00,44.0,15.0,-100.00,West,281,4.0,15.0,30,0.00,,,0.00,90.000000,,2013-04-24 01:52:00,
2013-04-23 20:02:00,44.0,15.0,-100.00,West,281,4.0,15.0,30,0.00,,,0.00,90.000000,,2013-04-24 02:02:00,
2013-04-23 20:17:00,44.0,15.0,-100.00,West,281,4.0,15.0,30,0.00,,,0.00,90.000000,,2013-04-24 02:17:00,
2013-04-23 20:24:00,43.0,16.0,-100.00,NW,316,8.0,16.0,33,0.00,,,0.00,8.000000,,2013-04-24 02:24:00,
2013-04-23 20:50:00,43.0,16.0,-100.00,NW,316,8.0,16.0,33,0.00,,,0.00,8.000000,,2013-04-24 02:50:00,
2013-04-23 21:00:00,43.0,16.0,-100.00,NW,316,8.0,16.0,33,0.00,,,0.00,8.000000,,2013-04-24 03:00:00,
2013-04-23 21:09:00,43.0,16.0,-100.00,NW,316,8.0,16.0,33,0.00,,,0.00,8.000000,,2013-04-24 03:09:00,
2013-04-23 22:01:00,41.0,25.0,-100.00,WNW,291,3.0,17.0,53,0.00,,,0.00,0.000000,,2013-04-24 04:01:00,
2013-04-23 22:03:00,41.0,25.0,-100.00,WNW,291,3.0,17.0,53,0.00,,,0.00,0.000000,,2013-04-24 04:03:00,
2013-04-23 22:12:00,41.0,25.0,-100.00,WNW,291,3.0,17.0,53,0.00,,,0.00,0.000000,,2013-04-24 04:12:00,
2013-04-23 22:23:00,41.0,25.0,-100.00,WNW,291,3.0,17.0,53,0.00,,,0.00,0.000000,,2013-04-24 04:23:00,
2013-04-23 22:43:00,37.0,24.0,-100.00,WNW,289,3.0,8.0,60,0.00,,,0.00,0.000000,,2013-04-24 04:43:00,
2013-04-23 22:53:00,37.0,24.0,-100.00,WNW,289,3.0,8.0,60,0.00,,,0.00,0.000000,,2013-04-24 04:53:00,
2013-04-23 23:02:00,37.0,24.0,-100.00,WNW,289,3.0,8.0,60,0.00,,,0.00,0.000000,,2013-04-24 05:02:00,
2013-04-23 23:12:00,37.0,24.0,-100.00,WNW,289,3.0,8.0,60,0.00,,,0.00,0.000000,,2013-04-24 05:12:00,
2013-04-23 23:21:00,37.0,24.0,-100.00,WNW,289,3.0,8.0,60,0.00,,,0.00,0.000000,,2013-04-24 05:21:00,
2013-04-23 23:52:00,37.0,26.0,-100.00,WNW,287,3.0,9.0,65,0.00,,,0.00,0.000000,,2013-04-24 05:52:00,